Lancaster, PA

4:09 PM EDT on September 29, 2016 (GMT -0400)
Lancaster

Weather History for KLNS - May, 2014

Change the Weather History Date:

Saturday, May 17, 2014

  Actual Average Record
Temperature  
Mean Temperature 54 °F -  
Max Temperature 64 °F 73 °F 86 °F (1987)
Min Temperature 44 °F 50 °F 34 °F (1983)
Degree Days  
Heating Degree Days 11    
Growing Degree Days 4 (Base 50)    
Moisture  
Dew Point 40 °F    
Average Humidity 61    
Maximum Humidity 82    
Minimum Humidity 41    
Precipitation  
Precipitation 0.00 in - - ()
Sea Level Pressure  
Sea Level Pressure 30.05 in    
Wind  
Wind Speed 8 mph (WNW)    
Max Wind Speed 12 mph    
Max Gust Speed 18 mph    
Visibility 10 miles    
Events      
Averages and records for this station are not official NWS values.
T = Trace of Precipitation, MM = Missing Value Source: NWS Daily Summary

Daily Weather History Graph

Daily Weather History Graph

Search for Another Location

Airport or City:

Trip Planner

Search our weather history database for the weather conditions in past years. The results will help you decide how hot, cold, wet, or windy it might be!

Date:

Astronomy

May. 17, 2014 Rise Set
Actual Time 5:47 AM EDT 8:15 PM EDT
Civil Twilight 5:16 AM EDT 8:46 PM EDT
Nautical Twilight 4:38 AM EDT 9:25 PM EDT
Astronomical Twilight 3:56 AM EDT 10:08 PM EDT
Moon 11:14 PM EDT (5/17) 8:28 AM EDT (5/17)
Length of Visible Light 15h 29m
Length of Day
14h 27m
Waning Gibbous, 89% of the Moon is Illuminated
May 17
Waning Gibbous
May 21
Last Quarter
May 28
New
Jun 5
First Quarter
Jun 13
Full

Hourly Weather History & Observations

Time (EDT) Temp. Windchill Dew Point Humidity Pressure Visibility Wind Dir Wind Speed Gust Speed Precip Events Conditions
12:53 AM 50.0 °F - 42.1 °F 74% 29.93 in 10.0 mi WNW 9.2 mph - N/A   Scattered Clouds
1:53 AM 48.9 °F - 41.0 °F 74% 29.94 in 10.0 mi West 9.2 mph - N/A   Partly Cloudy
2:53 AM 48.0 °F - 39.9 °F 74% 29.94 in 10.0 mi West 8.1 mph - N/A   Partly Cloudy
3:53 AM 46.0 °F 43.1 °F 39.9 °F 79% 29.95 in 10.0 mi West 5.8 mph - N/A   Scattered Clouds
4:53 AM 44.1 °F 40.1 °F 39.0 °F 82% 29.97 in 10.0 mi West 6.9 mph - N/A   Clear
5:53 AM 44.1 °F 40.1 °F 39.0 °F 82% 29.99 in 10.0 mi West 6.9 mph - N/A   Clear
6:53 AM 46.9 °F - 41.0 °F 80% 30.02 in 10.0 mi West 5.8 mph - N/A   Clear
7:53 AM 52.0 °F - 39.9 °F 63% 30.04 in 10.0 mi NW 9.2 mph - N/A   Clear
8:53 AM 55.0 °F - 42.1 °F 62% 30.05 in 10.0 mi WNW 9.2 mph - N/A   Clear
9:53 AM 57.9 °F - 41.0 °F 53% 30.07 in 10.0 mi NNW 9.2 mph - N/A   Clear
10:53 AM 59.0 °F - 42.1 °F 53% 30.07 in 10.0 mi West 9.2 mph - N/A   Scattered Clouds
11:53 AM 57.9 °F - 41.0 °F 53% 30.08 in 10.0 mi NW 8.1 mph - N/A   Mostly Cloudy
12:53 PM 57.9 °F - 42.1 °F 56% 30.08 in 10.0 mi WNW 8.1 mph - N/A   Overcast
1:53 PM 60.1 °F - 42.1 °F 51% 30.07 in 10.0 mi WNW 9.2 mph - N/A   Mostly Cloudy
2:53 PM 64.0 °F - 43.0 °F 46% 30.07 in 10.0 mi WNW 8.1 mph 18.4 mph N/A   Scattered Clouds
3:53 PM 62.1 °F - 41.0 °F 46% 30.07 in 10.0 mi NW 8.1 mph - N/A   Mostly Cloudy
4:53 PM 61.0 °F - 39.0 °F 44% 30.06 in 10.0 mi WNW 11.5 mph - N/A   Scattered Clouds
5:53 PM 61.0 °F - 37.0 °F 41% 30.07 in 10.0 mi WNW 6.9 mph - N/A   Clear
6:53 PM 60.1 °F - 36.0 °F 41% 30.08 in 10.0 mi West 8.1 mph - N/A   Mostly Cloudy
7:53 PM 57.9 °F - 37.9 °F 47% 30.10 in 10.0 mi West 8.1 mph - N/A   Mostly Cloudy
8:53 PM 54.0 °F - 39.0 °F 57% 30.11 in 10.0 mi West 5.8 mph - N/A   Clear
10:53 PM 50.0 °F - 39.0 °F 66% 30.14 in 10.0 mi NW 5.8 mph - N/A   Clear
11:53 PM 48.0 °F - 39.0 °F 71% 30.17 in 10.0 mi West 6.9 mph - N/A   Partly Cloudy